sat.trackr.live / text

‹ back to catalog

GLOBALSTAR M072

NORAD 31574 · 2007-020D

PAYLOAD ACTIVE UNKNOWN

§ Identity

Operator
Country
GLOB
Launch date
2007-05-29
Launch site
TYMSC
Launch vehicle
Mass (kg)
RCS (m²)
2.27

Purposes: comms

External: N2YO · Heavens-Above · Gunter

§ Orbital elements

Epoch: 2026-09-04T01:25:58.093824Z

Period
120.84 min
Inclination
51.9908°
Eccentricity
0.0001329
Mean motion
11.91660018 rev/d
Perigee alt
1,717.3 km
Apogee alt
1,719.5 km
Semi-major
8,096.6 km
B*
2.0806e-4
RAAN
250.2668°
Arg perigee
99.8617°
Mean anomaly
298.0944°
Rev number
88,438

§ Raw data

GLOBALSTAR M0721 31574U 07020D   26247.05970016 -.00000069  00000+0  20806-3 0  99922 31574  51.9908 250.2668 0001329  99.8617 298.0944 11.91660018884388

JSON: /api/v1/satellites/31574 · /tle

For live sub-satellite position, see the globe view (requires WebGL).

§ Visibility from observer

Set your observer location to see the next 7 days of passes ≥ 10°. The values pass through the URL so the page stays shareable.

No JS? Fill the form by hand. The geolocation button needs JavaScript.